Location: Durkee
(44.1305°N, 107.9134°W)
Time: 15:12:40
(UTC+00:00)

Envisat - Visible Passes

Search period start: 24 January 2022 00:00
Search period end: 03 February 2022 00:00
Orbit: 764 x 766 km, 98.2° (Epoch: 23 January)

Date Brightness Start Highest point End Pass type
(mag) Time Alt. Az. Time Alt. Az. Time Alt. Az.
24 Jan 5.9 10:39:47 10° ENE 10:41:40 12° E 10:43:34 10° ESE visible
24 Jan 2.8 12:16:14 10° NNE 12:21:21 85° WNW 12:26:26 10° SSW visible
24 Jan 4.7 13:57:30 10° NNW 13:59:34 12° WNW 14:01:36 10° W visible
25 Jan 4.0 11:39:32 10° NNE 11:44:25 44° E 11:49:15 10° S visible
25 Jan 4.0 13:19:05 10° N 13:23:09 25° WNW 13:27:13 10° WSW visible
26 Jan 6.0 00:36:55 10° SW 00:39:51 15° W 00:42:49 10° NW visible
26 Jan 5.3 11:03:28 10° NE 11:07:16 21° E 11:11:03 10° SE visible
26 Jan 3.1 12:41:39 10° N 12:46:33 50° WNW 12:51:26 10° SW visible
27 Jan 3.0 12:04:39 10° NNE 12:09:45 77° ESE 12:14:50 10° S visible
27 Jan 4.5 13:45:14 10° NNW 13:48:08 15° WNW 13:51:01 10° W visible
28 Jan 4.4 11:28:05 10° NNE 11:32:45 35° E 11:37:23 10° SSE visible
28 Jan 3.7 13:07:16 10° N 13:11:40 30° WNW 13:16:03 10° SW visible
29 Jan 5.6 10:52:21 10° NE 10:55:33 17° E 10:58:43 10° SE visible
29 Jan 2.9 12:29:58 10° N 12:35:00 63° WNW 12:40:00 10° SSW visible
30 Jan 3.4 11:53:05 10° NNE 11:58:08 61° E 12:03:09 10° S visible
30 Jan 4.3 13:33:11 10° NNW 13:36:41 19° WNW 13:40:10 10° WSW visible
31 Jan 6.4 00:52:24 10° WSW 00:53:44 11° W 00:55:04 10° WNW visible
31 Jan 4.8 11:16:44 10° NE 11:21:05 28° E 11:25:24 10° SSE visible
31 Jan 3.4 12:55:29 10° N 13:00:09 38° WNW 13:04:48 10° SW visible
01 Feb 5.9 10:41:32 10° ENE 10:43:48 13° E 10:46:05 10° ESE visible
01 Feb 2.8 12:18:19 10° N 12:23:26 80° WNW 12:28:30 10° SSW visible
02 Feb 3.9 11:41:35 10° NNE 11:46:30 48° E 11:51:23 10° S visible
02 Feb 4.1 13:21:15 10° NNW 13:25:13 23° WNW 13:29:09 10° WSW visible
